Regional Weather Roundup
Issued by NWS

Home | Current Version | Previous Version | Graphics & Text | Print | Product List | Glossary On
Versions: 1 2 3 4 5 6 7 8 9 10 11 12 13 14 15 16 17 18 19 20 21 22 23 24 25 26 27 28
000
ASUS45 KCYS 270710
RWRWY

WYOMING REGIONAL WEATHER ROUNDUP
NATIONAL WEATHER SERVICE CHEYENNE WY
100 AM MDT SUN MAY 27 2018

NOTE:  "FAIR" INDICATES FEW OR NO CLOUDS BELOW 12,000 FEET
WITH NO SIGNIFICANT WEATHER AND/OR OBSTRUCTIONS TO VISIBILITY.

WYZ001-270800-
YELLOWSTONE NATIONAL PARK

CITY           SKY/WX    TMP DP  RH WIND       PRES   REMARKS
LK YELLOWSTONE   N/A     43  37  79 VRB3      30.14R
W YELLOWSTONE  NOT AVBL

$$
WYZ002>013-054>058-071-098>099-270800-
NORTHERN WYOMING

CITY           SKY/WX    TMP DP  RH WIND       PRES   REMARKS
JACKSON        FAIR      49  41  74 W7        30.03R
CODY           NOT AVBL
GREYBULL       FAIR      71  43  36 NW23      29.78S
WORLAND        FAIR      66  45  46 NW8       29.84R
SHERIDAN       TSTM      61  55  81 SW29G35   29.94R
BUFFALO        CLOUDY    61  56  83 NW13G36   29.93R
GILLETTE       FAIR      79  39  23 SE8       29.76F
NEWCASTLE      FAIR      73  43  33 SE8       29.76F

$$
WYZ014>020-022>026-101>103-270800-
CENTRAL WYOMING

CITY           SKY/WX    TMP DP  RH WIND       PRES   REMARKS
BIG PINEY      FAIR      56  33  42 N14       29.92F
PINEDALE       FAIR      52  36  54 W16       29.96F
DUBOIS         CLOUDY    52  34  50 W8        30.00R
LANDER         FAIR      62  43  49 N8        29.88F
RIVERTON       FAIR      65  39  38 NE14      29.89R
CASPER         FAIR      64  42  44 NE9       29.84R
DOUGLAS        FAIR      62  47  57 N3        29.80F

$$
WYZ021-027>030-104>119-270800-
SOUTHERN WYOMING

CITY           SKY/WX    TMP DP  RH WIND       PRES   REMARKS
EVANSTON       FAIR      52  36  54 N17       29.94F
FORT BRIDGER   FAIR      54  29  37 W13G20    29.97R
ROCK SPRINGS   FAIR      57  29  34 SW10      29.92R
DIXON          PTSUNNY   67  26  21 S5        29.95S
RAWLINS        FAIR      64  25  22 SW7       29.93S
SARATOGA       FAIR      55  25  30 SE6       29.97S
LARAMIE        FAIR      52  36  54 W5        29.95R
CHEYENNE       FAIR      64  44  48 W5        29.87F
TORRINGTON     FAIR      70  49  47 CALM      29.74S
PINE BLUFFS    FAIR      68  37  32 S10       29.82S

$$




USA.gov is the U.S. government's official web portal to all federal, state and local government web resources and services.